Theta_e
306 307 306 307 307 306 307 307 307 308 308 309 309 311 313 314 313 314 316 319 314 310 310 310 309 309 310 310 306 308 307 308 308 304 304 305 301 305 302 304 303 302 301 300 302 299 296 314 311 305 311 315 316 317
306 306 306 307 307 306 306 307 307 308 309 310 309 310 312 313 312 312 314 317 315 309 311 313 313 313 312 311 310 311 308 307 311 308 309 307 303 306 304 298 309 300 305 303 304 304 315 316 314 317 316 315 316 317
305 306 306 306 306 306 306 307 307 308 309 310 309 310 311 311 311 311 313 314 313 312 310 311 310 314 316 315 316 309 312 310 312 313 309 308 302 306 300 301 304 307 312 306 306 309 311 314 315 315 315 315 316 316
305 305 306 306 306 305 306 306 307 308 309 310 309 310 311 311 311 310 313 316 313 309 306 307 314 312 315 315 314 314 313 315 315 313 308 305 302 308 303 304 303 306 307 306 306 309 311 312 313 313 314 315 314 315
305 306 306 305 305 305 306 307 308 308 309 310 310 311 311 310 310 312 316 318 314 310 305 308 312 313 314 314 312 313 312 311 311 308 306 304 308 306 307 305 303 308 306 301 300 307 306 308 313 314 313 313 315 315
305 305 305 305 305 306 307 308 308 308 309 310 310 311 310 310 309 314 312 315 318 315 307 305 311 310 312 313 312 313 314 312 311 309 307 309 312 306 301 300 307 310 310 309 306 309 310 312 314 315 314 316 317 317
305 305 305 306 307 307 308 309 308 309 309 309 310 310 309 309 311 310 309 311 311 316 308 304 305 310 311 312 315 314 314 313 311 309 307 307 306 305 301 298 307 308 309 311 313 312 310 312 311 312 315 316 315 317
305 306 306 306 307 307 308 309 309 309 310 310 309 309 308 308 309 312 316 310 311 311 310 303 305 306 312 311 309 316 311 310 309 309 308 306 305 306 299 305 309 309 310 310 311 313 313 314 315 314 316 316 315 314
305 306 306 306 307 307 308 309 309 309 309 309 309 309 310 311 314 313 314 312 317 312 303 304 303 301 312 312 313 311 312 302 310 305 304 307 303 299 304 307 308 309 308 309 312 313 313 311 312 313 313 314 314 315
306 306 306 306 307 307 308 308 309 309 308 309 310 310 306 311 315 314 311 308 308 310 307 303 309 305 309 311 309 307 309 304 299 304 309 303 301 307 309 312 311 311 311 311 309 309 308 306 311 311 313 312 313 313
306 306 306 307 307 307 308 308 309 308 308 310 311 307 309 314 311 309 303 302 303 300 306 307 307 306 311 304 305 311 304 306 296 300 301 300 301 307 308 310 311 311 311 312 313 312 312 311 310 312 311 311 314 315
306 306 306 307 307 307 308 308 308 310 309 306 306 309 312 308 305 300 302 303 300 300 307 307 309 309 312 312 307 309 302 304 294 307 300 297 306 307 307 309 311 311 312 312 311 309 309 311 314 311 310 312 312 315
306 306 307 307 307 308 309 309 309 308 308 309 306 306 305 304 292 295 294 299 302 307 309 308 308 311 308 309 306 304 298 296 306 299 297 303 306 309 310 311 310 312 312 311 310 310 310 310 312 312 311 311 314 313
306 306 307 307 308 309 309 309 309 308 307 304 302 290 299 297 299 302 303 306 309 312 310 310 310 305 305 304 305 298 304 303 295 291 294 303 308 309 311 311 310 310 311 309 308 309 311 310 310 310 311 312 314 314
306 306 307 308 309 309 309 309 309 311 309 303 303 294 299 304 308 310 311 310 312 315 312 310 308 308 302 302 305 300 296 292 294 294 301 305 311 311 310 310 310 310 308 310 308 310 310 309 308 310 317 319 316 315
306 306 308 308 308 308 308 308 311 312 308 304 302 299 305 305 305 307 308 308 315 313 313 310 305 301 300 302 298 296 294 293 298 303 306 309 311 311 311 310 310 310 311 311 309 309 310 309 309 310 315 316 318 318
305 308 307 307 307 307 309 309 310 305 304 301 301 306 305 304 304 307 310 310 316 311 306 308 297 297 306 298 297 302 298 300 304 305 308 312 312 311 311 311 311 309 310 312 310 309 309 310 311 309 312 316 319 319
305 309 307 307 307 307 309 307 306 303 298 303 301 304 307 309 308 309 311 314 311 310 312 304 306 300 297 296 297 303 306 307 308 308 310 312 312 312 312 312 310 312 313 312 311 309 309 311 309 308 310 312 313 313
306 307 307 307 307 304 304 305 307 300 303 305 307 308 309 310 313 314 314 315 315 316 311 308 303 301 302 304 304 306 308 308 308 310 310 312 313 312 313 314 310 311 313 313 313 312 313 312 313 311 311 311 310 311
306 307 307 308 307 304 301 302 309 303 302 307 309 308 309 310 313 314 314 314 311 308 305 304 305 308 306 306 307 309 310 309 308 306 305 309 313 313 313 313 312 313 312 312 314 306 311 311 313 313 315 315 313 309
307 308 309 309 305 305 303 302 302 304 307 306 310 310 308 312 310 311 313 311 308 306 306 309 312 308 309 311 313 311 311 311 308 307 307 308 311 310 308 309 313 312 309 308 309 307 308 310 312 313 314 314 314 310
307 307 306 306 302 303 301 306 305 308 306 306 307 309 307 308 310 311 312 308 308 310 313 312 308 311 313 311 312 313 312 313 314 312 302 306 310 312 313 314 310 310 308 308 309 308 309 312 313 312 312 312 311 313
307 305 303 304 300 300 300 310 303 307 304 306 311 307 308 309 312 312 308 311 313 317 314 314 313 313 310 312 313 313 314 314 313 312 313 313 313 314 314 312 312 310 307 309 310 309 310 304 310 312 312 313 312 311
305 300 301 302 302 298 307 304 307 307 308 306 305 303 307 311 312 309 305 309 312 314 312 312 310 309 310 311 309 310 313 315 313 312 314 311 311 312 312 311 311 313 313 312 311 310 311 310 305 311 312 311 312 312
295 297 298 291 303 302 301 300 302 304 303 306 304 304 309 313 307 305 303 308 310 310 309 310 309 309 308 307 308 310 314 311 310 309 312 313 312 310 309 310 311 312 314 310 310 310 310 311 310 311 310 311 311 310
291 301 295 299 300 300 301 299 302 304 306 304 306 311 312 309 300 299 306 310 310 310 308 308 307 307 308 311 310 310 311 316 314 310 312 314 311 311 309 308 304 308 314 314 310 308 308 310 309 309 309 307 300 308
293 298 303 308 306 306 304 307 308 306 304 302 307 306 306 299 299 305 311 313 311 312 311 311 311 310 310 310 313 316 317 317 314 313 315 316 315 315 311 308 307 310 313 311 309 308 308 310 308 308 308 309 309 308
301 303 299 303 303 305 301 301 301 303 306 311 309 302 301 302 303 311 313 314 313 313 312 312 313 313 312 313 314 314 314 316 316 315 315 314 314 316 316 317 317 298 312 311 309 310 309 309 309 308 308 307 308 309
301 305 304 301 302 303 304 303 304 311 315 312 307 305 307 314 317 317 315 314 314 312 310 310 312 314 314 315 315 315 314 313 310 307 305 306 307 309 314 316 313 313 313 311 291 300 309 308 309 309 308 308 309 310
302 307 303 302 301 301 304 309 310 314 316 314 314 314 314 316 319 320 316 314 312 311 311 312 312 311 310 310 310 311 313 313 313 310 307 307 308 311 313 312 311 311 313 314 311 310 297 306 303 311 309 309 308 309
307 305 302 303 301 305 307 309 310 311 310 310 313 312 312 316 319 318 315 315 313 312 311 310 310 311 311 311 310 310 309 314 314 315 315 315 314 313 313 312 312 312 313 314 313 311 310 310 310 308 307 307 307 306
304 302 302 300 302 308 311 310 310 308 308 310 311 314 314 313 310 314 315 315 312 310 308 309 310 310 313 314 314 314 300 313 315 316 316 315 314 315 314 313 312 311 312 312 313 313 310 309 310 308 308 307 307 308
304 305 304 303 303 303 307 309 310 308 310 309 310 312 311 311 309 316 317 316 313 311 311 312 313 314 315 316 315 315 304 316 311 299 298 298 299 305 313 313 313 312 310 310 312 312 310 308 309 309 308 308 308 308
Wind_Speed
10 10 11 12 12 13 14 14 14 14 14 14 15 15 15 15 16 10 4 7 7 3 4 2 1 1 2 2 4 5 6 5 4 6 3 3 7 2 6 10 8 10 9 11 13 16 19 9 3 9 9 8 10 9
10 10 11 11 12 12 13 14 14 13 14 13 13 13 14 14 15 13 2 5 4 3 6 2 4 5 5 4 4 2 5 3 4 3 2 3 6 4 7 8 5 10 11 10 9 4 7 4 6 6 10 9 7 11
9 10 10 11 11 12 13 13 14 14 14 14 11 12 11 11 12 10 5 5 3 2 5 5 4 5 3 7 6 4 3 3 3 5 4 3 6 6 8 7 10 6 6 9 14 12 15 9 11 12 10 10 14 15
9 10 10 10 11 12 12 14 14 14 15 14 11 12 8 9 9 10 4 4 2 2 4 7 2 3 2 5 6 6 3 1 1 3 4 4 5 3 7 9 9 8 9 10 15 17 19 20 17 15 16 17 17 17
9 10 10 10 11 12 13 13 13 13 14 13 11 11 8 8 10 8 3 2 2 7 5 3 3 5 3 5 6 5 7 6 4 4 5 6 6 6 8 10 10 11 14 12 11 13 13 15 18 18 20 21 20 20
9 10 9 11 12 13 13 14 13 13 14 12 11 10 8 9 9 5 6 1 1 4 2 1 3 3 2 4 5 6 6 5 5 4 5 4 9 6 7 8 9 9 8 11 12 15 18 19 20 22 23 19 15 16
9 9 11 11 12 13 13 13 11 11 12 11 10 8 7 7 7 4 6 3 3 2 2 3 4 5 2 3 4 4 5 4 5 4 6 8 7 3 7 13 17 13 8 10 12 13 17 19 17 18 19 19 20 20
10 11 10 10 11 14 14 12 12 12 12 11 11 10 8 9 9 5 3 9 2 3 3 3 2 5 2 3 3 1 4 2 4 4 3 6 5 6 5 7 2 4 9 12 13 13 15 18 19 20 21 19 20 19
9 10 11 11 12 13 13 13 13 13 13 13 13 7 4 4 1 3 6 9 2 2 2 3 3 4 3 1 1 4 3 4 5 5 5 4 6 6 7 6 5 9 10 15 17 19 19 20 20 20 20 20 20 19
9 11 11 11 12 13 13 14 14 13 13 9 5 4 3 2 7 6 4 3 2 4 3 4 2 2 3 1 1 3 3 3 4 2 3 5 9 6 11 8 8 11 14 16 18 19 16 16 18 18 21 15 19 20
10 11 12 13 13 14 14 13 13 12 6 2 1 2 1 3 3 3 3 3 1 3 4 3 3 3 3 5 4 1 3 2 3 2 4 3 2 3 5 8 9 13 15 16 17 16 18 18 17 17 17 19 22 21
11 11 12 13 14 15 13 12 10 6 3 3 5 3 4 3 3 4 3 3 4 3 5 3 2 3 1 3 4 2 3 1 5 2 4 4 1 6 8 11 12 14 15 16 15 18 18 20 19 16 17 18 20 21
11 11 13 15 16 16 15 10 8 6 2 2 3 3 2 4 2 6 6 4 4 5 5 5 3 2 1 3 3 3 6 5 2 4 4 2 6 7 9 11 12 14 16 16 20 20 16 16 17 18 19 18 20 17
10 11 12 14 14 10 12 9 8 7 2 4 3 2 5 5 6 4 5 3 5 2 3 4 2 4 3 5 2 5 2 2 4 3 5 3 7 7 10 10 12 14 15 17 15 16 15 14 15 19 16 14 12 11
10 13 15 6 7 9 8 4 7 3 3 4 3 5 6 6 3 2 3 3 3 2 4 3 3 4 3 5 2 3 4 4 5 5 5 5 6 8 10 10 12 12 11 13 14 14 14 16 18 16 12 9 5 7
11 15 1 4 9 10 3 4 4 3 3 3 4 5 5 5 6 6 6 6 2 3 2 4 3 4 5 4 5 7 3 5 5 3 5 5 6 8 9 10 9 10 11 12 12 12 14 19 13 14 10 9 10 7
11 3 3 7 10 9 1 3 3 5 4 4 5 6 8 8 7 6 3 4 1 4 4 2 2 3 1 5 5 4 5 7 7 8 7 5 7 8 7 8 7 8 10 10 9 11 11 13 13 13 16 16 13 13
4 1 0 7 8 3 2 3 4 4 7 7 5 4 6 6 7 6 4 3 5 4 2 4 3 5 5 10 8 3 4 5 6 6 6 6 7 7 6 7 6 9 10 7 7 8 9 12 10 8 11 13 11 11
7 9 10 10 5 3 3 3 4 5 7 5 6 7 7 7 7 7 6 4 6 3 3 3 6 5 6 3 8 6 5 5 7 6 6 5 6 6 7 6 4 8 9 8 7 6 6 7 7 6 7 8 8 7
15 16 14 11 6 3 3 3 3 4 5 2 5 7 6 6 4 4 4 4 5 4 5 5 5 4 2 3 4 5 5 6 6 6 5 3 3 4 5 5 5 7 6 5 6 7 8 7 8 8 5 6 7 8
5 1 1 7 4 4 3 2 4 4 6 5 6 5 6 4 6 5 2 3 5 4 5 4 1 3 2 2 5 4 3 4 5 4 5 4 4 5 4 5 5 5 5 5 5 7 9 9 9 8 9 8 8 7
1 2 2 2 3 3 4 4 5 5 5 6 8 5 5 4 3 3 5 6 4 3 2 1 2 3 3 2 1 2 3 2 1 1 5 3 4 3 3 3 5 6 4 6 5 5 6 7 9 7 9 8 8 10
2 3 2 4 4 5 4 3 4 5 5 3 2 4 3 3 2 4 4 2 1 2 3 3 5 3 5 5 3 2 1 1 1 2 1 3 3 2 3 5 4 5 6 6 5 6 6 1 4 7 8 8 9 9
5 2 3 5 7 5 3 5 6 5 4 5 4 4 1 1 4 4 3 2 3 5 6 7 6 5 5 4 4 4 3 1 2 3 1 3 2 1 4 5 4 3 4 4 5 5 5 7 6 7 8 10 9 9
3 4 4 5 4 6 5 4 4 4 5 4 4 3 2 3 3 2 2 2 5 6 7 7 5 4 2 4 4 4 4 5 4 4 3 3 3 6 4 4 4 5 4 4 5 5 5 5 6 8 9 9 8 9
4 6 6 4 4 5 4 4 4 4 5 4 4 1 2 2 2 2 2 2 4 7 7 7 5 5 4 1 1 2 3 1 2 5 2 3 4 2 4 3 3 6 4 5 6 7 7 5 5 6 6 6 3 8
5 6 6 4 4 3 4 6 7 5 6 3 1 2 2 2 1 2 4 3 4 5 6 6 5 4 3 4 2 1 2 2 4 4 3 3 2 2 5 5 5 4 3 5 6 6 6 3 5 6 6 6 8 8
6 4 8 5 5 5 6 5 5 4 3 1 2 2 2 3 4 3 3 4 5 7 7 6 5 4 4 3 3 3 4 3 3 4 5 5 4 2 2 2 3 4 5 7 7 5 6 6 5 6 7 7 6 7
5 4 4 8 8 5 5 6 5 3 3 3 3 4 3 2 2 0 3 6 6 7 8 7 7 5 5 4 4 4 4 4 4 3 3 4 5 5 3 3 5 5 4 7 4 7 7 7 8 7 6 5 4 5
8 8 6 6 7 7 6 7 5 4 3 4 4 4 5 4 1 2 4 6 7 8 8 7 6 6 7 7 6 6 6 5 3 4 5 5 6 4 4 4 4 4 3 1 3 7 6 7 5 4 2 3 4 4
2 5 7 9 8 7 8 8 8 8 9 8 6 7 5 3 2 5 5 6 7 7 7 6 6 6 6 5 5 4 5 4 4 3 2 1 3 4 3 4 4 4 3 1 1 3 5 3 4 4 4 4 3 4
5 9 6 7 8 7 5 6 7 6 6 6 6 4 4 4 6 6 7 7 8 8 8 8 8 7 7 4 4 5 1 5 3 4 5 5 4 5 6 5 4 4 4 3 1 2 3 3 3 4 3 1 3 4
7 6 4 6 6 6 7 5 4 4 5 6 5 5 6 4 5 2 5 9 9 10 10 10 8 6 1 4 5 4 3 3 3 4 3 3 5 1 5 5 5 5 6 5 2 1 1 2 3 1 3 4 4 4
Wind_Direction
337 342 340 342 342 354 347 347 348 345 351 353 357 353 353 2 1 336 53 10 338 331 101 216 28 266 189 277 305 77 216 188 208 242 277 238 267 272 282 266 290 246 225 233 236 260 260 37 219 267 10 333 326 320
332 336 335 339 338 348 341 344 340 339 342 347 352 348 348 359 1 334 2 34 353 289 30 324 305 305 294 356 320 127 21 45 25 277 225 287 241 231 282 270 159 255 292 307 301 285 77 41 11 353 322 310 331 325
328 328 331 330 338 341 337 332 338 334 333 339 344 342 345 350 357 343 342 0 287 282 167 207 129 94 216 239 280 289 117 33 131 342 341 313 266 291 272 257 279 254 263 270 278 258 280 333 302 300 312 318 309 298
318 320 320 328 334 332 325 326 324 327 331 332 334 336 346 347 342 327 330 25 326 286 290 112 167 261 345 236 237 262 355 207 315 269 278 279 277 256 283 309 290 291 302 273 275 282 290 282 292 309 311 297 293 294
312 311 318 325 323 314 315 322 321 324 330 329 331 335 342 340 331 295 355 77 308 318 339 22 133 114 103 156 201 211 229 253 265 235 232 252 263 288 264 263 272 265 266 264 277 302 295 287 291 296 292 297 294 287
303 312 318 311 310 310 317 320 320 325 328 330 336 335 335 336 326 254 186 128 157 333 298 266 75 175 166 196 221 220 228 231 250 266 275 260 266 282 269 265 279 300 287 308 303 299 292 297 291 285 280 279 290 297
311 310 301 312 318 320 323 322 321 320 323 328 321 319 331 330 297 301 4 52 11 281 290 246 163 138 231 237 200 199 193 227 256 266 251 273 278 179 269 267 265 281 335 328 312 304 286 284 291 307 303 296 286 281
300 310 317 318 317 320 324 322 323 320 317 311 298 295 298 294 262 237 124 212 240 262 238 286 129 182 202 191 200 195 197 214 218 284 291 261 280 230 251 254 14 328 311 291 289 292 287 285 284 279 279 281 282 279
310 309 310 314 314 313 317 322 320 314 317 309 301 265 239 229 247 29 106 140 208 319 305 265 276 99 185 196 298 188 267 251 146 245 242 251 246 219 266 308 264 339 313 298 299 295 296 302 289 286 293 298 293 286
301 313 310 307 308 313 315 319 316 316 313 296 251 224 113 14 107 143 191 183 199 201 215 255 330 135 288 78 200 276 191 275 271 192 305 237 256 331 4 356 314 303 315 308 310 303 308 297 304 297 288 294 290 286
312 310 308 309 314 310 309 311 314 325 276 266 287 59 343 282 233 243 212 230 226 217 200 224 275 306 120 287 334 342 328 311 266 128 276 248 300 298 291 296 315 322 318 321 318 312 309 297 287 284 284 281 281 280
311 316 316 308 304 306 304 305 306 282 27 346 317 281 212 225 222 249 201 147 214 235 161 219 129 230 136 266 263 214 269 207 256 69 258 256 37 347 330 327 325 328 323 322 322 307 294 299 297 289 281 277 277 277
308 314 317 317 313 309 300 294 267 250 305 238 239 214 216 164 257 224 189 178 208 176 177 183 181 255 156 237 243 258 235 230 10 234 250 307 331 311 327 319 326 322 333 329 327 321 306 296 292 290 290 284 277 262
306 309 302 295 303 316 331 325 172 138 235 248 218 273 232 194 231 214 214 88 82 203 172 225 172 198 176 220 214 251 250 252 253 266 247 276 1 317 322 321 325 328 332 331 315 307 308 310 305 300 293 281 284 255
312 319 311 308 348 346 353 96 148 200 264 255 217 240 228 249 274 277 316 260 205 265 256 229 225 210 176 244 197 298 237 246 220 240 283 354 333 316 320 331 328 331 317 322 336 322 324 322 315 312 321 335 286 298
318 297 311 356 353 351 348 187 218 247 238 256 233 261 244 263 245 224 231 245 229 217 239 240 239 234 217 236 188 218 230 226 254 283 316 334 322 321 321 327 326 318 317 334 331 332 324 320 347 351 349 1 359 23
299 245 73 3 344 325 176 254 239 230 262 222 231 239 271 297 289 299 287 285 139 234 254 217 209 219 219 238 225 218 241 304 335 318 325 349 312 320 322 310 323 326 312 336 332 338 326 328 335 346 357 356 2 13
255 108 47 339 338 287 207 218 258 252 242 235 248 269 224 258 282 278 252 207 232 238 218 224 225 231 215 247 248 289 289 302 306 298 311 329 314 312 299 304 341 315 313 332 319 317 329 341 346 342 341 338 343 353
291 303 307 302 307 305 266 206 242 261 240 263 267 263 259 266 260 269 273 244 240 267 263 219 237 235 234 326 314 313 313 302 312 312 307 297 306 302 297 302 299 299 329 333 330 344 333 351 344 347 346 339 347 355
280 276 267 256 227 247 242 228 220 269 278 331 259 268 252 268 294 256 243 192 185 200 223 233 248 296 247 66 302 298 313 326 307 309 323 324 332 298 297 312 347 318 308 338 9 350 355 18 21 4 353 6 3 17
263 3 283 157 186 246 278 280 250 232 283 273 291 287 276 224 242 235 182 135 208 232 241 278 341 97 110 267 284 323 325 318 350 339 337 348 3 354 318 322 314 315 340 22 35 353 350 2 7 19 31 22 33 28
274 359 209 180 231 214 257 234 272 319 264 271 290 248 271 257 230 180 158 200 234 257 300 68 134 211 183 200 109 255 34 319 284 278 217 248 302 334 356 346 8 355 16 38 14 32 17 5 350 28 36 53 45 49
275 210 226 205 236 220 259 188 248 237 246 258 222 241 214 210 160 164 242 231 280 140 135 142 118 95 97 120 126 144 207 294 54 52 16 288 294 11 359 329 27 0 13 37 21 29 36 58 3 16 53 58 63 47
85 244 236 208 207 262 225 216 211 259 252 245 250 273 234 182 159 226 249 175 125 136 145 147 169 156 163 189 178 128 153 245 259 155 135 263 265 4 342 345 344 11 8 355 13 33 32 39 20 54 49 52 56 68
232 232 197 251 218 234 238 242 223 238 255 246 270 248 181 192 245 244 317 93 158 161 144 167 191 216 164 122 149 159 186 273 350 340 74 309 4 316 3 16 61 27 343 349 16 30 37 44 54 51 42 35 42 53
238 202 200 223 213 223 239 256 241 270 282 257 223 259 235 262 261 320 12 111 160 159 169 175 184 172 172 201 248 174 103 213 270 273 68 329 351 342 119 316 48 68 34 16 3 3 9 25 67 41 60 75 21 3
239 223 200 225 275 273 272 255 266 275 264 265 240 218 237 260 250 37 98 144 150 161 165 177 190 202 143 142 167 209 271 255 254 315 330 295 300 304 323 13 53 66 81 20 13 359 359 9 55 37 29 51 42 18
251 275 230 219 218 237 265 283 265 256 273 324 270 248 283 344 1 48 61 145 154 149 164 171 192 205 209 206 239 239 230 225 223 246 232 212 186 211 219 176 101 82 0 28 357 40 25 44 32 42 39 42 41 31
239 231 235 237 230 236 224 229 252 276 30 316 327 319 318 5 353 297 143 164 170 171 176 180 187 209 218 220 232 244 239 239 274 267 15 36 65 108 158 167 138 180 178 124 62 31 31 22 14 16 26 34 38 34
228 212 233 234 222 229 226 209 249 269 281 302 307 262 238 229 159 151 177 182 189 197 203 204 195 202 226 213 198 191 205 221 242 303 2 41 66 91 122 146 148 146 140 114 113 140 181 226 169 196 0 9 27 11
223 201 235 245 255 252 258 271 281 274 264 266 259 269 287 323 196 179 200 195 200 199 193 191 196 202 229 223 235 265 283 182 175 218 259 134 130 132 143 143 161 156 159 140 24 5 10 340 26 26 66 27 52 332
213 221 231 242 250 236 257 255 246 243 234 222 238 205 212 232 258 158 186 186 199 197 202 214 202 205 209 252 305 301 277 293 256 189 187 200 187 167 171 184 178 174 185 188 254 327 20 313 359 7 2 60 358 3
213 225 222 271 255 236 219 229 224 247 218 241 238 235 242 267 271 117 157 198 202 204 199 201 220 228 168 277 321 324 244 215 136 75 76 323 347 282 202 186 167 192 204 231 242 284 327 10 304 321 268 304 326 342